Weather History for Oscoda, MI

Change the Weather History Date:

Saturday, July 20, 2013

  Actual Average Record
Temperature  
Mean Temperature 70 °F -  
Max Temperature 81 °F 77 °F 89 °F (1998)
Min Temperature 57 °F 57 °F 42 °F (1997)
Cooling Degree Days 5    
Growing Degree Days 20 (Base 50)    
Moisture  
Dew Point 58 °F    
Average Humidity 70    
Maximum Humidity 97    
Minimum Humidity 40    
Precipitation  
Precipitation 0.00 in - - ()
Sea Level Pressure  
Sea Level Pressure 29.84 in    
Wind  
Wind Speed 7 mph (NW)    
Max Wind Speed 17 mph    
Max Gust Speed 25 mph    
Visibility 10 miles    
Events      
Averages and records for this station are not official NWS values.
T = Trace of Precipitation, MM = Missing Value Source: NWS Daily Summary

Daily Weather History Graph

Daily Weather History Graph

Search for Another Location

Airport:

Trip Planner

Search our weather history database for the weather conditions in past years. The results will help you decide how hot, cold, wet, or windy it might be!

Date:

Astronomy

Jul. 20, 2013 Rise Set
Actual Time 6:08 AM EDT 9:11 PM EDT
Civil Twilight 5:33 AM EDT 9:45 PM EDT
Nautical Twilight 4:48 AM EDT 10:30 PM EDT
Astronomical Twilight 3:55 AM EDT 11:23 PM EDT
Moon 7:13 PM EDT 3:47 AM EDT
Length of Visible Light 16h 12m
Length of Day
15h 03m
Waxing Gibbous, 93% of the Moon is Illuminated
Jul 20
Waxing Gibbous
Jul 22
Full
Jul 29
Last Quarter
Aug 6
New
Aug 14
First Quarter

Hourly Weather History & Observations

Time (EDT) Temp. Heat Index Dew Point Humidity Pressure Visibility Wind Dir Wind Speed Gust Speed Precip Events Conditions
12:13 AM 70.5 °F - 67.5 °F 90% 29.74 in 10.0 mi North 8.1 mph - N/A   Overcast
12:34 AM 69.1 °F - 66.6 °F 92% 29.74 in 10.0 mi North 4.6 mph - N/A   Overcast
12:54 AM 68.4 °F - 64.6 °F 88% 29.76 in 10.0 mi NNW 4.6 mph - N/A   Mostly Cloudy
1:14 AM 67.5 °F - 63.5 °F 87% 29.76 in 7.0 mi North 3.5 mph - N/A   Mostly Cloudy
1:34 AM 66.7 °F - 62.8 °F 87% 29.76 in 10.0 mi Calm Calm - N/A   Overcast
1:54 AM 66.0 °F - 62.8 °F 89% 29.76 in 10.0 mi Calm Calm - N/A   Overcast
2:14 AM 66.4 °F - 63.0 °F 89% 29.76 in 10.0 mi Calm Calm - N/A   Overcast
2:34 AM 66.2 °F - 63.0 °F 89% 29.76 in 10.0 mi Calm Calm - N/A   Mostly Cloudy
2:54 AM 65.1 °F - 61.9 °F 89% 29.76 in 10.0 mi WNW 4.6 mph - N/A   Mostly Cloudy
3:14 AM 64.4 °F - 61.5 °F 90% 29.77 in 10.0 mi Calm Calm - N/A   Mostly Cloudy
3:34 AM 65.8 °F - 61.3 °F 85% 29.77 in 10.0 mi Calm Calm - N/A   Mostly Cloudy
3:54 AM 64.4 °F - 61.2 °F 89% 29.77 in 10.0 mi Calm Calm - N/A   Mostly Cloudy
4:14 AM 63.0 °F - 61.3 °F 94% 29.76 in 10.0 mi SW 4.6 mph - N/A   Scattered Clouds
4:34 AM 61.7 °F - 60.4 °F 96% 29.77 in 10.0 mi SW 4.6 mph - N/A   Scattered Clouds
4:54 AM 62.6 °F - 61.5 °F 96% 29.77 in 10.0 mi SSW 5.8 mph - N/A   Clear
5:14 AM 63.0 °F - 61.7 °F 96% 29.77 in 10.0 mi SSW 4.6 mph - N/A   Clear
5:34 AM 63.0 °F - 61.0 °F 93% 29.77 in 10.0 mi SW 4.6 mph - N/A   Clear
5:54 AM 61.2 °F - 59.9 °F 96% 29.76 in 10.0 mi SW 3.5 mph - N/A   Clear
6:14 AM 59.9 °F - 59.0 °F 97% 29.77 in 10.0 mi SW 3.5 mph - N/A   Clear
6:34 AM 60.3 °F - 59.0 °F 96% 29.78 in 10.0 mi SW 3.5 mph - N/A   Clear
6:54 AM 62.4 °F - 60.8 °F 94% 29.78 in 10.0 mi SW 6.9 mph - N/A   Clear
7:14 AM 63.1 °F - 61.2 °F 93% 29.79 in 10.0 mi WSW 6.9 mph - N/A   Clear
7:34 AM 64.4 °F - 61.9 °F 92% 29.80 in 10.0 mi SW 6.9 mph - N/A   Clear
7:54 AM 65.5 °F - 61.9 °F 88% 29.80 in 10.0 mi SW 9.2 mph - N/A   Clear
8:14 AM 66.4 °F - 62.1 °F 86% 29.81 in 10.0 mi SW 9.2 mph - N/A   Clear
8:34 AM 68.0 °F - 62.2 °F 82% 29.82 in 10.0 mi SW 8.1 mph - N/A   Clear
8:54 AM 69.1 °F - 62.6 °F 80% 29.83 in 10.0 mi WSW 8.1 mph - N/A   Mostly Cloudy
9:14 AM 70.5 °F - 62.6 °F 76% 29.83 in 10.0 mi SW 8.1 mph - N/A   Overcast
9:34 AM 72.5 °F - 61.5 °F 68% 29.82 in 10.0 mi WSW 10.4 mph - N/A   Mostly Cloudy
9:54 AM 73.8 °F - 61.2 °F 65% 29.82 in 10.0 mi WSW 11.5 mph - N/A   Mostly Cloudy
10:14 AM 74.3 °F - 61.0 °F 63% 29.83 in 10.0 mi West 11.5 mph - N/A   Overcast
10:34 AM 74.1 °F - 60.8 °F 63% 29.83 in 10.0 mi WNW 10.4 mph - N/A   Overcast
10:54 AM 74.5 °F - 62.2 °F 66% 29.83 in 10.0 mi West 9.2 mph - N/A   Overcast
11:14 AM 76.3 °F - 60.8 °F 59% 29.83 in 10.0 mi West 11.5 mph 18.4 mph N/A   Mostly Cloudy
11:34 AM 77.9 °F - 60.6 °F 55% 29.83 in 10.0 mi West 12.7 mph 19.6 mph N/A   Scattered Clouds
11:54 AM 77.4 °F - 60.4 °F 56% 29.84 in 10.0 mi West 11.5 mph 25.3 mph N/A   Mostly Cloudy
12:14 PM 79.3 °F - 60.1 °F 52% 29.83 in 10.0 mi WSW 13.8 mph 17.3 mph N/A   Scattered Clouds
12:34 PM 80.1 °F 80.8 °F 59.2 °F 49% 29.83 in 10.0 mi WSW 12.7 mph 17.3 mph N/A   Scattered Clouds
12:54 PM 77.9 °F - 57.0 °F 48% 29.84 in 10.0 mi WNW 12.7 mph - N/A   Mostly Cloudy
1:14 PM 81.5 °F 81.1 °F 55.9 °F 41% 29.83 in 10.0 mi WNW 5.8 mph - N/A   Mostly Cloudy
1:33 PM 77.7 °F - 54.7 °F 45% 29.83 in 10.0 mi NNW 9.2 mph 18.4 mph N/A   Mostly Cloudy
1:54 PM 80.6 °F 80.6 °F 56.5 °F 43% 29.83 in 10.0 mi North 12.7 mph 16.1 mph N/A   Scattered Clouds
2:14 PM 80.8 °F 80.5 °F 54.1 °F 40% 29.83 in 10.0 mi NNW 9.2 mph - N/A   Scattered Clouds
2:34 PM 74.8 °F - 57.9 °F 55% 29.85 in 10.0 mi ENE 12.7 mph 18.4 mph N/A   Mostly Cloudy
2:54 PM 73.8 °F - 56.5 °F 55% 29.85 in 10.0 mi ENE 17.3 mph - N/A   Mostly Cloudy
3:14 PM 73.8 °F - 54.3 °F 51% 29.85 in 10.0 mi NE 15.0 mph 21.9 mph N/A   Mostly Cloudy
3:33 PM 73.8 °F - 55.2 °F 52% 29.85 in 10.0 mi ENE 16.1 mph 20.7 mph N/A   Mostly Cloudy
3:54 PM 73.9 °F - 55.6 °F 53% 29.85 in 10.0 mi NE 15.0 mph - N/A   Mostly Cloudy
4:14 PM 73.6 °F - 55.6 °F 53% 29.85 in 10.0 mi NE 15.0 mph - N/A   Mostly Cloudy
4:33 PM 72.0 °F - 56.5 °F 58% 29.86 in 10.0 mi NNE 13.8 mph - N/A   Overcast
4:54 PM 71.1 °F - 57.0 °F 61% 29.86 in 10.0 mi NE 11.5 mph - N/A   Overcast
5:14 PM 72.5 °F - 56.8 °F 58% 29.87 in 10.0 mi ENE 11.5 mph - N/A   Mostly Cloudy
5:34 PM 70.2 °F - 54.7 °F 58% 29.88 in 10.0 mi ENE 15.0 mph 20.7 mph N/A   Mostly Cloudy
5:54 PM 70.9 °F - 53.2 °F 54% 29.88 in 10.0 mi NE 16.1 mph - N/A   Scattered Clouds
6:14 PM 70.9 °F - 52.5 °F 52% 29.88 in 10.0 mi ENE 15.0 mph - N/A   Scattered Clouds
6:34 PM 69.1 °F - 52.7 °F 56% 29.88 in 10.0 mi NE 11.5 mph 20.7 mph N/A   Overcast
6:54 PM 68.5 °F - 54.0 °F 60% 29.88 in 10.0 mi NE 11.5 mph - N/A   Mostly Cloudy
7:14 PM 68.2 °F - 54.0 °F 60% 29.89 in 10.0 mi NE 13.8 mph - N/A   Scattered Clouds
7:34 PM 69.1 °F - 54.1 °F 59% 29.90 in 10.0 mi NE 12.7 mph - N/A   Scattered Clouds
7:54 PM 68.5 °F - 54.5 °F 61% 29.90 in 10.0 mi NE 9.2 mph - N/A   Clear
8:14 PM 69.1 °F - 52.2 °F 55% 29.90 in 10.0 mi NNE 8.1 mph - N/A   Clear
8:34 PM 67.8 °F - 51.3 °F 55% 29.90 in 10.0 mi North 8.1 mph - N/A   Clear
8:54 PM 67.1 °F - 51.3 °F 57% 29.90 in 10.0 mi North 6.9 mph - N/A   Clear
9:14 PM 65.7 °F - 49.8 °F 57% 29.91 in 10.0 mi North 5.8 mph - N/A   Clear
9:34 PM 63.1 °F - 49.6 °F 61% 29.93 in 10.0 mi NNW 4.6 mph - N/A   Clear
9:54 PM 60.8 °F - 49.3 °F 66% 29.94 in 10.0 mi NNW 5.8 mph - N/A   Clear
10:14 PM 61.7 °F - 47.3 °F 59% 29.95 in 10.0 mi NNW 4.6 mph - N/A   Clear
10:34 PM 61.0 °F - 47.3 °F 61% 29.95 in 10.0 mi NNW 3.5 mph - N/A   Clear
10:54 PM 60.1 °F - 46.9 °F 62% 29.96 in 10.0 mi NNW 5.8 mph - N/A   Clear
11:14 PM 59.4 °F - 47.1 °F 64% 29.97 in 10.0 mi Calm Calm - N/A   Clear
11:34 PM 59.0 °F - 46.8 °F 64% 29.98 in 10.0 mi NNW 3.5 mph - N/A   Clear
11:54 PM 57.7 °F - 46.6 °F 66% 29.98 in 10.0 mi Calm Calm - N/A   Clear